Location: Caltech
(34.1382°N, 118.1253°W)
Time: 08:33:02
(UTC-08:00)

BREEZE M DEB (TANK) - Visible Passes

Search period start: 03 March 2015 00:00
Search period end: 13 March 2015 01:00
Orbit: 337 x 13797 km, 49.6° (Epoch: 28 February)

Date Brightness Start Highest point End Pass type
(mag) Time Alt. Az. Time Alt. Az. Time Alt. Az.
03 Mar 9.6 03:25:20 10° S 05:03:11 57° ESE 06:04:24 10° NE visible
04 Mar 10.0 01:29:35 10° ESE 01:59:55 18° ESE 03:15:41 10° ENE visible
04 Mar 8.9 05:21:29 10° SSW 07:23:54 90° NW 08:04:03 10° NE visible
05 Mar 9.6 02:49:19 10° SSE 04:19:05 50° ESE 05:25:53 10° NE visible
06 Mar 10.2 01:09:41 10° ESE 01:16:52 12° ESE 02:30:16 10° ENE visible
06 Mar 9.1 04:41:53 10° SSW 06:40:21 84° SE 07:26:19 10° NE visible
07 Mar 9.6 02:14:10 10° SSE 03:34:58 44° ESE 04:46:50 10° NE visible
08 Mar 9.4 05:02:55 10° SSW 06:56:05 78° SE 07:48:16 10° NE visible
09 Mar 9.6 02:40:11 10° SSE 03:50:59 37° ESE 05:07:07 10° NE visible
10 Mar 9.5 04:24:31 10° S 06:11:16 71° SE 07:09:53 10° NE visible
11 Mar 9.6 02:07:50 10° SE 03:07:14 30° ESE 04:26:32 10° NE visible
11 Mar 8.9 06:26:04 10° SW 08:32:44 78° NW 09:08:47 10° NE visible
12 Mar 9.4 03:46:38 10° S 05:26:08 64° SE 06:31:09 10° NE visible
